Location: Earls Croome
(52.0667°N, 2.2000°W)
Time: 03:26:23
(UTC+00:00)

COSMOS 2455 - Pass Details

Date: 29 February 2020
Orbit: 901 x 909 km, 67.2° (Epoch: 04 April)

Event Time Altitude Azimuth Distance (km) Brightness Sun altitude
Rises 19:00:58 0° 156° (SSE) 3,514 5.7 -12.1°
Reaches altitude 10° 19:04:37 10° 134° (SE) 2,581 4.8 -12.6°
Enters shadow 19:05:44 13° 124° (SE) 2,397 4.5 -12.8°
